Hourly Data Report for July 26, 2021

FLIN FLON
MANITOBA
Current Station Operator: ECCC - MSC

54°41'00.000" N
101°41'00.000" W
303.90 m
5050919
71954
WFO

Download Data

Hourly Data (July 2021)
Hourly Data Report for July 26, 2021
TIME
LST
Temp Definition
°C
Dew Point Definition
°C
Rel Hum Definition
%
Precip. Amount Definition
mm

Wind Dir Definition
10's deg

Wind Spd Definition
km/h
Visibility Definition
km
Stn Press Definition
kPa
Hmdx Definition


Wind Chill Definition


Weather Definition


00:00 13.3 11.8 90 0.0   0   97.66     LegendNANA
01:00 12.6 11.8 95 0.0 0 1   97.68     LegendNANA
02:00 13.1 12.0 93 0.0 7 2   97.70     LegendNANA
03:00 13.5 11.1 85 0.0 7 4   97.70     LegendNANA
04:00 13.2 9.6 79 0.0 11 3   97.74     LegendNANA
05:00 13.4 9.3 76 0.0 7 6   97.74     LegendNANA
06:00 13.2 8.7 74 0.0 11 7   97.76     LegendNANA
07:00 14.6 9.0 69 0.0 12 6   97.79     LegendNANA
08:00 16.5 7.9 57 0.0 17 9   97.80     LegendNANA
09:00 17.3 7.0 51 0.0 17 11   97.78     LegendNANA
10:00 17.7 8.5 55 0.0 19 12   97.78     LegendNANA
11:00 18.9 9.7 55 0.0 17 10   97.79     LegendNANA
12:00 19.9 11.5 58 0.0 16 10   97.75     LegendNANA
13:00 20.9 11.8 56 0.0 16 9   97.74     LegendNANA
14:00 20.9 12.5 59 0.0 15 6   97.73     LegendNANA
15:00 22.1 11.6 51 0.0 10 7   97.70     LegendNANA
16:00 22.0 11.4 51 0.0 6 4   97.68     LegendNANA
17:00 23.3 10.5 45 0.0 3 5   97.65 25   LegendNANA
18:00 24.0 10.0 41 0.0 25 8   97.61 25   LegendNANA
19:00 23.2 9.2 41 0.0 29 10   97.61     LegendNANA
20:00 22.4 8.6 41 0.0 28 8   97.61     LegendNANA
21:00 19.1 9.9 55 0.0 29 3   97.65     LegendNANA
22:00 16.2 10.7 70 0.0 28 4   97.68     LegendNANA
23:00 14.8 11.5 81 0.0   0   97.69     LegendNANA

Notes on Data Quality.

Legend

  • E = Estimated
  • M = Missing
  • NA = Not Available*
  • [empty] = Indicates an unobserved value
Date modified: